logo tempoitalia

Diretta Meteo Almeria, Spagnalunedì 31 agosto ore 07:00

Mappa
Sereno 23 °C Sereno 24 Ore: T.min 20 T.max 26
Ponente Nord/NOvest Km/h 7.4 Punto di rugiada: 15 °C Umidità: 60% Visibilità: 10 Km
Il sole sorge alle: 07:39 Il sole tramonta alle: 20:39
31 Agosto 2026 07:00 tempo osservato: Sereno Sereno 23 60 1016 vento: Nord N/NO 7.4
31 Agosto 2026 06:30 tempo osservato: Sereno Sereno 23 60 1015 vento: Nord N/NO 7.4
31 Agosto 2026 06:00 tempo osservato: Sereno Sereno 23 60 1015 vento: Nord N/NE 13
31 Agosto 2026 05:30 tempo osservato: Sereno Sereno 22 68 1015 vento: Nord N 1.8
31 Agosto 2026 05:00 tempo osservato: Sereno Sereno 21 73 1016 vento: Nord N 5.5
31 Agosto 2026 04:30 tempo osservato: Sereno Sereno 20 77 1016 vento: Nord N 5.5
31 Agosto 2026 04:00 tempo osservato: Sereno Sereno 21 77 1016 vento: Nord N 0
31 Agosto 2026 03:30 tempo osservato: Sereno Sereno 21 82 1016 vento: Nord N 5.5
31 Agosto 2026 03:00 tempo osservato: Sereno Sereno 21 82 1017 vento: Nord N 5.5
31 Agosto 2026 02:30 tempo osservato: Sereno Sereno 21 88 1017 vento: Nord N 1.8
31 Agosto 2026 02:00 tempo osservato: Sereno Sereno 22 88 1017 vento: Nord N 0
31 Agosto 2026 01:30 tempo osservato: Sereno Sereno 22 88 1017 vento: Nord N 0
31 Agosto 2026 01:00 tempo osservato: Sereno Sereno 23 83 1017 vento: Nord N 3.7
31 Agosto 2026 00:30 tempo osservato: Sereno Sereno 23 88 1017 vento: Nord N 3.7
31 Agosto 2026 00:00 tempo osservato: Sereno Sereno 23 88 1017 vento: Nord N 5.5
30 Agosto 2026 23:30 tempo osservato: Sereno Sereno 22 94 1017 vento: Nord N 5.5
30 Agosto 2026 23:00 tempo osservato: Sereno Sereno 23 88 1017 vento: Nord N 1.8
30 Agosto 2026 22:30 tempo osservato: Sereno Sereno 23 88 1017 vento: Nord N 3.7
30 Agosto 2026 22:00 tempo osservato: Sereno Sereno 23 88 1016 vento: Nord N 3.7
30 Agosto 2026 21:30 tempo osservato: Sereno Sereno 23 88 1016 vento: Nord N 0
30 Agosto 2026 21:00 tempo osservato: Sereno Sereno 24 83 1016 vento: Nord N 1.8
30 Agosto 2026 20:30 tempo osservato: Sereno Sereno 24 88 1015 vento: Nord N 5.5
30 Agosto 2026 20:00 tempo osservato: Sereno Sereno 24 88 1015 vento: Nord N 5.5
30 Agosto 2026 19:30 tempo osservato: Sereno Sereno 25 78 1015 vento: Nord S/SO 9.3
30 Agosto 2026 19:00 tempo osservato: Sereno Sereno 25 83 1015 vento: Nord SO 11.1
30 Agosto 2026 18:30 tempo osservato: Sereno Sereno 26 78 1015 vento: Nord O/SO 13
30 Agosto 2026 18:00 tempo osservato: Sereno Sereno 26 78 1016 vento: Nord S 7.4
30 Agosto 2026 17:30 tempo osservato: Sereno Sereno 26 78 1016 vento: Nord S 7.4
30 Agosto 2026 17:00 tempo osservato: Sereno Sereno 26 78 1016 vento: Nord S/SO 9.3
30 Agosto 2026 16:30 tempo osservato: Sereno Sereno 26 78 1016 vento: Nord S/SO 9.3
30 Agosto 2026 16:00 tempo osservato: Sereno Sereno 26 78 1016 vento: Nord S/SO 9.3
30 Agosto 2026 15:30 tempo osservato: Sereno Sereno 26 73 1017 vento: Nord S/SO 9.3
30 Agosto 2026 15:00 tempo osservato: Sereno Sereno 26 69 1017 vento: Nord S/SO 9.3
30 Agosto 2026 14:30 tempo osservato: Sereno Sereno 26 73 1017 vento: Nord S/SO 11.1
30 Agosto 2026 14:00 tempo osservato: Sereno Sereno 25 69 1017 vento: Nord S/SO 11.1
30 Agosto 2026 13:30 tempo osservato: Sereno Sereno 26 61 1017 vento: Nord S/SO 11.1
30 Agosto 2026 13:00 tempo osservato: Sereno Sereno 26 73 1018 vento: Nord S/SO 11.1
30 Agosto 2026 12:30 tempo osservato: Sereno Sereno 26 73 1018 vento: Nord S/SO 7.4
30 Agosto 2026 12:00 tempo osservato: Sereno Sereno 26 69 1018 vento: Nord N 5.5
30 Agosto 2026 11:30 tempo osservato: Sereno Sereno 26 57 1018 vento: Nord N 5.5
30 Agosto 2026 11:00 tempo osservato: Sereno Sereno 25 57 1018 vento: Nord N 5.5
30 Agosto 2026 10:30 tempo osservato: Sereno Sereno 24 60 1018 vento: Nord N 3.7
30 Agosto 2026 10:00 tempo osservato: Sereno Sereno 24 57 1017 vento: Nord N 1.8
30 Agosto 2026 09:30 tempo osservato: Sereno Sereno 23 60 1017 vento: Nord N 3.7
30 Agosto 2026 09:00 tempo osservato: Sereno Sereno 23 64 1017 vento: Nord N 0
30 Agosto 2026 08:30 tempo osservato: Sereno Sereno 20 77 1017 vento: Nord N 1.8
30 Agosto 2026 08:00 tempo osservato: Sereno Sereno 20 72 1016 vento: Nord N 3.7